User: anonymous   Login
Location: Unspecified
(0.0000°N, 0.0000°E)
Time: 08:27:45
(UTC+00:00)
Language:

CUTE 1.7 + AOD 2 - Orbit

View from above orbital plane
View from above orbital plane
View from above satellite
View from above satellite

Ground track
Ground track

The orbit data is extracted from the following two-line orbital elements,

1 32785U 08021C   17022.50473522  .00000274  00000-0  35658-4 0  9990
2 32785  97.5810  53.3277 0011782 293.5810  66.4170 14.87778993473237
Epoch (UTC): 22 January 2017 12:06:49
Eccentricity: 0.0011782
inclination: 97.5810°
perigee height: 596 km
apogee height: 613 km
right ascension of ascending node: 53.3277°
argument of perigee: 293.5810°
revolutions per day: 14.87778993
mean anomaly at epoch: 66.4170°
orbit number at epoch: 47323

The dashed part of the orbit path shows where the satellite is in the earth's shadow,  

DLR